DW9837 Weather Reports


Display with metric or nautical units.
time (UTC)temp
F
wind
direction
speed
MPH
gust
MPH
rain 1hr
in
rain 24hr
in
rain mn
in
humidity
%
barometer
mb
20260507201525 66 274 2.0 6.0 0.00 0.46 0.24 29 1006.0
20260507200033 66 261 1.0 8.0 0.00 0.46 0.24 31 1006.0
20260507194522 66 355 2.0 6.0 0.00 0.48 0.24 31 1006.1
20260507193025 66 4 1.0 6.0 0.00 0.48 0.24 29 1006.3
20260507191519 66 12 1.0 7.0 0.00 0.48 0.24 30 1006.5
20260507190031 65 47 2.0 7.0 0.00 0.48 0.24 30 1006.5
20260507184523 66 52 2.0 5.0 0.00 0.53 0.24 32 1006.8
20260507183019 66 346 2.0 7.0 0.00 0.53 0.24 31 1006.9
20260507181512 65 9 1.0 9.0 0.00 0.53 0.24 34 1006.9
20260507180012 65 184 2.0 4.0 0.00 0.53 0.24 33 1007.2
20260507174511 64 104 1.0 4.0 0.00 0.53 0.24 31 1007.3
20260507173006 64 61 2.0 6.0 0.00 0.53 0.24 37 1007.5
20260507171505 63 328 2.0 7.0 0.00 0.53 0.24 36 1007.6
20260507170004 63 243 1.0 10.0 0.00 0.53 0.24 35 1007.8
20260507164502 62 29 2.0 6.0 0.00 0.53 0.24 36 1007.9
20260507163103 62 247 1.0 6.0 0.00 0.53 0.24 39 1008.2
20260507161605 61 84 2.0 5.0 0.00 0.53 0.24 40 1008.4
20260507154554 60 40 1.0 6.0 0.00 0.53 0.24 45 1008.7
20260507153056 60 357 3.0 6.0 0.00 0.53 0.24 45 1008.8
20260507151551 59 274 2.0 5.0 0.00 0.53 0.24 45 1008.7
20260507150052 59 257 2.0 4.0 0.00 0.53 0.24 50 1008.8
20260507144550 58 24 2.0 5.0 0.00 0.53 0.24 52 1008.7
20260507143043 57 24 1.0 5.0 0.00 0.53 0.24 56 1008.9
20260507141540 56 345 1.0 6.0 0.00 0.53 0.24 65 1008.7
20260507140055 56 14 1.0 4.0 0.00 0.53 0.24 71 1008.8
20260507134536 54 266 0.0 4.0 0.00 0.53 0.24 77 1008.8
20260507133035 52 21 0.0 3.0 0.00 0.53 0.24 84 1008.8
20260507131536 52 21 0.0 3.0 0.00 0.53 0.24 86 1009.2
20260507130036 51 81 0.0 2.0 0.00 0.53 0.24 87 1008.9
20260507124531 50 19 0.0 2.0 0.00 0.53 0.24 89 1008.9
20260507123033 50 78 0.0 1.0 0.01 0.53 0.24 90 1009.2
20260507121538 50 4 0.0 2.0 0.02 0.53 0.24 92 1008.8
20260507120028 50 14 0.0 2.0 0.02 0.53 0.24 94 1008.9
20260507114527 50 272 0.0 2.0 0.02 0.53 0.24 94 1008.9
20260507113033 50 148 0.0 1.0 0.02 0.52 0.23 94 1008.8
20260507111525 50 260 0.0 1.0 0.02 0.51 0.22 94 1008.7
20260507110027 50 15 0.0 1.0 0.02 0.51 0.22 94 1008.4
20260507104523 50 12 0.0 0.0 0.02 0.51 0.22 94 1008.4
20260507103022 50 12 0.0 1.0 0.01 0.50 0.21 94 1008.2
20260507101527 50 292 0.0 3.0 0.01 0.49 0.20 94 1008.3
20260507100025 50 336 0.0 1.0 0.02 0.49 0.20 94 1007.6
20260507094521 50 73 0.0 1.0 0.02 0.49 0.20 94 1007.6
20260507093033 50 305 0.0 1.0 0.02 0.49 0.20 94 1007.3
20260507091515 50 265 0.0 1.0 0.01 0.48 0.19 94 1007.8
20260507090027 51 51 0.0 1.0 0.02 0.47 0.18 94 1007.7
20260507084515 51 12 0.0 1.0 0.03 0.47 0.18 94 1007.6
20260507083031 51 14 0.0 1.0 0.04 0.47 0.18 94 1007.1
20260507081513 51 38 0.0 1.0 0.08 0.47 0.18 94 1006.9
20260507080010 51 30 0.0 3.0 0.14 0.45 0.16 93 1007.1
20260507074523 52 23 0.0 2.0 0.14 0.44 0.15 94 1007.2
20260507073006 52 28 0.0 4.0 0.13 0.43 0.14 93 1007.5
20260507071504 53 75 0.0 2.0 0.08 0.38 0.09 92 1006.8
20260507070003 54 34 0.0 1.0 0.01 0.31 0.02 92 1006.9
20260507064600 54 239 0.0 2.0 0.00 0.30 0.01 92 1006.3
20260507063100 54 42 0.0 1.0 0.00 0.30 0.01 93 1006.4
20260507061556 54 356 1.0 2.0 0.00 0.30 0.01 93 1006.4
20260507060052 55 32 0.0 1.0 0.01 0.30 0.01 94 1006.5
20260507054602 56 303 0.0 1.0 0.01 0.30 0.01 96 1006.7
20260507053049 56 302 0.0 1.0 0.01 0.30 0.01 96 1006.8
20260507051548 56 302 0.0 0.0 0.01 0.30 0.01 96 1006.9
20260507050046 56 302 0.0 1.0 0.00 0.28 0.00 95 1007.1
20260507044546 56 302 0.0 1.0 0.01 0.28 0.00 95 1007.2
20260507043044 56 269 0.0 2.0 0.02 0.28 0.00 96 1007.4
20260507041541 55 334 0.0 0.0 0.02 0.28 0.00 95 1007.4
20260507040048 55 258 0.0 1.0 0.02 0.28 0.00 95 1007.4
20260507034545 55 258 0.0 0.0 0.01 0.28 0.28 95 1007.4
20260507033040 55 258 0.0 0.0 0.00 0.27 0.27 95 1007.5
20260507031537 55 258 0.0 0.0 0.00 0.27 0.27 95 1007.6
20260507030037 55 258 0.0 1.0 0.00 0.27 0.27 95 1007.6
20260507024536 55 262 0.0 2.0 0.00 0.27 0.27 95 1007.6
20260507023035 55 272 0.0 1.0 0.00 0.27 0.27 95 1007.4
20260507021534 55 273 0.0 2.0 0.00 0.27 0.27 94 1007.7
20260507020035 55 251 0.0 4.0 0.00 0.27 0.27 94 1008.0
20260507014533 55 270 0.0 4.0 0.00 0.27 0.27 94 1008.0
20260507013037 55 172 0.0 3.0 0.00 0.27 0.27 94 1007.7
20260507011538 55 152 0.0 2.0 0.00 0.27 0.27 94 1007.7
20260507010031 55 209 0.0 1.0 0.00 0.27 0.27 94 1007.9
20260507004530 55 187 0.0 2.0 0.00 0.27 0.27 94 1008.1
20260507003029 55 302 0.0 2.0 0.00 0.27 0.27 93 1008.2
20260507001531 55 277 0.0 2.0 0.00 0.27 0.27 93 1008.2
20260507000028 55 274 0.0 3.0 0.00 0.27 0.27 93 1007.9
20260506234538 55 295 1.0 5.0 0.00 0.27 0.27 93 1007.8
20260506233029 55 313 1.0 4.0 0.00 0.27 0.27 93 1007.8
20260506231531 55 284 2.0 5.0 0.00 0.27 0.27 93 1007.9
20260506230025 55 163 1.0 7.0 0.00 0.27 0.27 93 1007.8
20260506224529 56 337 2.0 9.0 0.01 0.27 0.27 94 1007.8
20260506223024 56 296 2.0 8.0 0.02 0.27 0.27 94 1007.6
20260506221523 56 132 1.0 7.0 0.04 0.27 0.27 94 1007.6
20260506220022 56 307 2.0 7.0 0.09 0.27 0.27 94 1007.6
20260506214522 56 13 2.0 6.0 0.15 0.26 0.26 94 1007.6
20260506213022 56 236 3.0 9.0 0.16 0.25 0.25 93 1007.6
20260506211519 56 299 1.0 10.0 0.15 0.22 0.22 92 1007.9
20260506210020 56 246 0.0 3.0 0.10 0.17 0.17 92 1008.1
20260506204516 56 272 1.0 4.0 0.05 0.11 0.11 91 1008.4
20260506203014 56 176 1.0 4.0 0.03 0.09 0.09 91 1008.2